Time,TemperatureF,DewpointF,PressureIn,WindDirection,WindDirectionDegrees,WindSpeedMPH,WindSpeedGustMPH,Humidity,HourlyPrecipIn,Conditions,Clouds,dailyrainin,SoftwareType,DateUTC
2013-05-26 00:00:00,41.4,38.2,29.77,NW,310,5.2,7.4,88,0.00,,,0.00,WUHU216HW,2013-05-26 04:00:00,
2013-05-26 00:01:00,41.4,38.2,29.77,NW,309,4.4,7.4,88,0.00,,,0.00,WUHU216HW,2013-05-26 04:01:00,
2013-05-26 00:06:00,41.4,38.2,29.77,ENE,68,4.7,7.2,88,0.00,,,0.00,WUHU216HW,2013-05-26 04:06:00,
2013-05-26 00:11:00,41.2,38.0,29.77,WNW,294,2.7,4.7,88,0.00,,,0.00,WUHU216HW,2013-05-26 04:11:00,
2013-05-26 00:16:00,41.2,38.0,29.77,WNW,293,4.8,5.1,88,0.00,,,0.00,WUHU216HW,2013-05-26 04:16:00,
2013-05-26 00:21:00,41.2,38.0,29.77,WSW,248,4.0,5.1,88,0.00,,,0.00,WUHU216HW,2013-05-26 04:21:00,
2013-05-26 00:26:00,41.0,37.8,29.77,North,10,2.3,4.7,88,0.00,,,0.00,WUHU216HW,2013-05-26 04:26:00,
2013-05-26 00:31:00,41.0,37.8,29.76,NW,315,8.5,8.5,88,0.00,,,0.00,WUHU216HW,2013-05-26 04:31:00,
2013-05-26 00:36:00,40.9,37.7,29.77,NW,320,2.5,8.5,88,0.00,,,0.00,WUHU216HW,2013-05-26 04:36:00,
2013-05-26 00:41:00,40.9,37.7,29.76,WNW,282,2.5,6.0,88,0.00,,,0.00,WUHU216HW,2013-05-26 04:41:00,
2013-05-26 00:46:00,40.9,37.7,29.76,NW,323,2.3,6.9,88,0.00,,,0.00,WUHU216HW,2013-05-26 04:46:00,
2013-05-26 00:51:00,40.9,37.7,29.76,NW,315,2.7,6.9,88,0.00,,,0.00,WUHU216HW,2013-05-26 04:51:00,
2013-05-26 00:56:00,40.9,37.7,29.76,West,260,2.7,4.7,88,0.00,,,0.00,WUHU216HW,2013-05-26 04:56:00,
2013-05-26 01:01:00,40.7,37.5,29.76,West,270,2.5,4.7,88,0.00,,,0.00,WUHU216HW,2013-05-26 05:01:00,
2013-05-26 01:06:00,40.9,37.7,29.76,WSW,248,3.8,6.0,88,0.00,,,0.00,WUHU216HW,2013-05-26 05:06:00,
2013-05-26 01:11:00,40.7,37.5,29.76,West,270,3.6,7.6,88,0.00,,,0.00,WUHU216HW,2013-05-26 05:11:00,
2013-05-26 01:16:00,40.7,37.5,29.76,WNW,283,5.5,7.6,88,0.00,,,0.00,WUHU216HW,2013-05-26 05:16:00,
2013-05-26 01:21:00,40.7,37.5,29.76,North,0,4.5,6.9,88,0.00,,,0.00,WUHU216HW,2013-05-26 05:21:00,
2013-05-26 01:26:00,40.7,37.5,29.76,WNW,293,2.0,5.1,88,0.00,,,0.00,WUHU216HW,2013-05-26 05:26:00,
2013-05-26 01:31:00,40.7,37.5,29.76,WNW,299,3.7,8.3,88,0.00,,,0.00,WUHU216HW,2013-05-26 05:31:00,
2013-05-26 01:36:00,40.7,37.5,29.76,NNW,333,3.7,8.3,88,0.00,,,0.00,WUHU216HW,2013-05-26 05:36:00,
2013-05-26 01:41:00,40.7,37.5,29.75,NNW,338,6.3,6.3,88,0.00,,,0.00,WUHU216HW,2013-05-26 05:41:00,
2013-05-26 01:46:00,40.5,37.3,29.75,NW,323,2.6,7.2,88,0.00,,,0.00,WUHU216HW,2013-05-26 05:46:00,
2013-05-26 01:51:00,40.5,37.3,29.75,NW,319,4.7,7.2,88,0.00,,,0.00,WUHU216HW,2013-05-26 05:51:00,
2013-05-26 01:56:00,40.5,37.3,29.75,NW,313,2.9,6.3,88,0.00,,,0.00,WUHU216HW,2013-05-26 05:56:00,
2013-05-26 02:01:00,40.5,37.3,29.75,WNW,293,4.5,6.3,88,0.00,,,0.00,WUHU216HW,2013-05-26 06:01:00,
2013-05-26 02:06:00,40.5,37.3,29.75,West,266,3.3,4.7,88,0.00,,,0.00,WUHU216HW,2013-05-26 06:06:00,
2013-05-26 02:11:00,40.3,37.1,29.75,WSW,247,4.8,5.4,88,0.00,,,0.00,WUHU216HW,2013-05-26 06:11:00,
2013-05-26 02:16:00,40.3,37.1,29.75,NW,315,3.6,5.4,88,0.00,,,0.00,WUHU216HW,2013-05-26 06:16:00,
2013-05-26 02:21:00,40.3,37.1,29.75,WNW,293,5.4,5.4,88,0.00,,,0.00,WUHU216HW,2013-05-26 06:21:00,
2013-05-26 02:26:00,40.3,37.1,29.75,WNW,293,1.8,6.0,88,0.00,,,0.00,WUHU216HW,2013-05-26 06:26:00,
2013-05-26 02:31:00,40.3,37.1,29.74,NW,315,4.7,6.0,88,0.00,,,0.00,WUHU216HW,2013-05-26 06:31:00,
2013-05-26 02:36:00,40.3,37.1,29.74,West,270,4.0,5.4,88,0.00,,,0.00,WUHU216HW,2013-05-26 06:36:00,
2013-05-26 02:41:00,40.3,37.1,29.74,West,266,3.0,5.4,88,0.00,,,0.00,WUHU216HW,2013-05-26 06:41:00,
2013-05-26 02:46:00,40.3,37.1,29.75,West,270,2.1,5.4,88,0.00,,,0.00,WUHU216HW,2013-05-26 06:46:00,
2013-05-26 02:51:00,40.3,37.1,29.75,NNW,338,5.1,5.4,88,0.00,,,0.00,WUHU216HW,2013-05-26 06:51:00,
2013-05-26 02:56:00,40.3,37.1,29.74,WNW,288,2.8,5.1,88,0.00,,,0.00,WUHU216HW,2013-05-26 06:56:00,
2013-05-26 03:01:00,40.3,37.1,29.75,NW,304,4.3,4.7,88,0.00,,,0.00,WUHU216HW,2013-05-26 07:01:00,
2013-05-26 03:06:00,40.3,37.1,29.75,WNW,301,1.5,5.4,88,0.00,,,0.00,WUHU216HW,2013-05-26 07:06:00,
2013-05-26 03:11:00,40.3,37.1,29.75,WNW,293,3.4,5.4,88,0.00,,,0.00,WUHU216HW,2013-05-26 07:11:00,
2013-05-26 03:16:00,40.3,37.1,29.74,WNW,293,3.6,3.6,88,0.00,,,0.00,WUHU216HW,2013-05-26 07:16:00,
2013-05-26 03:21:00,40.3,37.1,29.74,West,270,4.0,4.0,88,0.00,,,0.00,WUHU216HW,2013-05-26 07:21:00,
2013-05-26 03:26:00,40.1,36.9,29.74,West,270,1.8,5.1,88,0.00,,,0.00,WUHU216HW,2013-05-26 07:26:00,
2013-05-26 03:31:00,40.3,37.1,29.74,WSW,242,2.3,5.8,88,0.00,,,0.00,WUHU216HW,2013-05-26 07:31:00,
2013-05-26 03:36:00,40.3,37.1,29.74,WNW,286,1.8,5.8,88,0.00,,,0.00,WUHU216HW,2013-05-26 07:36:00,
2013-05-26 03:41:00,40.1,36.9,29.74,West,270,5.8,5.8,88,0.00,,,0.00,WUHU216HW,2013-05-26 07:41:00,
2013-05-26 03:46:00,40.1,37.2,29.75,SW,225,4.0,5.8,89,0.01,,,0.01,WUHU216HW,2013-05-26 07:46:00,
2013-05-26 03:51:00,40.1,37.2,29.75,West,270,4.7,4.7,89,0.01,,,0.01,WUHU216HW,2013-05-26 07:51:00,
2013-05-26 03:56:00,40.1,37.2,29.74,West,281,1.6,4.7,89,0.01,,,0.01,WUHU216HW,2013-05-26 07:56:00,
2013-05-26 04:01:00,40.1,37.2,29.75,West,270,5.4,5.4,89,0.01,,,0.01,WUHU216HW,2013-05-26 08:01:00,
2013-05-26 04:06:00,40.1,36.9,29.75,WSW,248,2.9,5.4,88,0.01,,,0.01,WUHU216HW,2013-05-26 08:06:00,
2013-05-26 04:11:00,40.1,37.2,29.75,WNW,293,3.4,4.3,89,0.01,,,0.01,WUHU216HW,2013-05-26 08:11:00,
2013-05-26 04:16:00,40.1,37.2,29.75,West,276,2.7,4.7,89,0.01,,,0.01,WUHU216HW,2013-05-26 08:16:00,
2013-05-26 04:21:00,40.1,37.2,29.75,WNW,293,4.0,4.7,89,0.02,,,0.02,WUHU216HW,2013-05-26 08:21:00,
2013-05-26 04:26:00,40.1,36.9,29.75,SW,225,1.7,6.9,88,0.02,,,0.02,WUHU216HW,2013-05-26 08:26:00,
2013-05-26 04:31:00,40.1,36.9,29.75,NW,315,2.5,6.9,88,0.02,,,0.02,WUHU216HW,2013-05-26 08:31:00,
2013-05-26 04:36:00,40.1,36.9,29.75,NW,305,3.0,5.4,88,0.02,,,0.02,WUHU216HW,2013-05-26 08:36:00,
2013-05-26 04:41:00,40.1,36.9,29.75,NW,315,1.1,4.9,88,0.02,,,0.02,WUHU216HW,2013-05-26 08:41:00,
2013-05-26 04:46:00,40.1,36.9,29.75,NNW,338,2.2,4.9,88,0.01,,,0.02,WUHU216HW,2013-05-26 08:46:00,
2013-05-26 04:51:00,40.1,36.9,29.75,SW,225,2.5,3.1,88,0.02,,,0.03,WUHU216HW,2013-05-26 08:51:00,
2013-05-26 04:56:00,40.1,36.9,29.75,NNE,23,1.1,2.5,88,0.02,,,0.03,WUHU216HW,2013-05-26 08:56:00,
2013-05-26 05:01:00,40.3,37.4,29.75,NW,309,1.0,3.1,89,0.02,,,0.03,WUHU216HW,2013-05-26 09:01:00,
2013-05-26 05:06:00,40.3,37.4,29.75,WSW,251,2.2,3.1,89,0.02,,,0.03,WUHU216HW,2013-05-26 09:06:00,
2013-05-26 05:11:00,40.3,37.4,29.75,West,270,2.0,4.0,89,0.02,,,0.03,WUHU216HW,2013-05-26 09:11:00,
2013-05-26 05:16:00,40.3,37.4,29.75,WSW,249,3.3,4.0,89,0.02,,,0.03,WUHU216HW,2013-05-26 09:16:00,
2013-05-26 05:21:00,40.3,37.4,29.76,WSW,238,1.8,3.6,89,0.01,,,0.03,WUHU216HW,2013-05-26 09:21:00,
2013-05-26 05:26:00,40.3,37.4,29.76,WNW,288,3.2,4.5,89,0.02,,,0.04,WUHU216HW,2013-05-26 09:26:00,
2013-05-26 05:31:00,40.3,37.4,29.76,North,0,1.0,4.5,89,0.02,,,0.04,WUHU216HW,2013-05-26 09:31:00,
2013-05-26 05:36:00,40.3,37.4,29.76,WNW,293,4.3,4.3,89,0.02,,,0.04,WUHU216HW,2013-05-26 09:36:00,
2013-05-26 05:41:00,40.3,37.4,29.76,West,270,1.3,4.3,89,0.02,,,0.04,WUHU216HW,2013-05-26 09:41:00,
2013-05-26 05:46:00,40.5,37.6,29.76,West,277,1.8,3.8,89,0.01,,,0.04,WUHU216HW,2013-05-26 09:46:00,
2013-05-26 05:51:00,40.5,37.6,29.76,SSW,203,1.8,4.0,89,0.01,,,0.04,WUHU216HW,2013-05-26 09:51:00,
2013-05-26 05:56:00,40.5,37.6,29.76,NW,315,3.5,6.7,89,0.01,,,0.04,WUHU216HW,2013-05-26 09:56:00,
2013-05-26 06:01:00,40.7,37.8,29.77,WSW,248,3.8,6.7,89,0.01,,,0.04,WUHU216HW,2013-05-26 10:01:00,
2013-05-26 06:06:00,40.7,37.8,29.77,NW,315,3.8,3.8,89,0.01,,,0.04,WUHU216HW,2013-05-26 10:06:00,
2013-05-26 06:11:00,40.7,37.8,29.77,WSW,248,4.9,4.9,89,0.01,,,0.04,WUHU216HW,2013-05-26 10:11:00,
2013-05-26 06:16:00,40.9,38.0,29.77,WSW,248,4.5,4.9,89,0.01,,,0.04,WUHU216HW,2013-05-26 10:16:00,
2013-05-26 06:21:00,40.9,38.0,29.78,NNW,338,4.3,4.9,89,0.01,,,0.04,WUHU216HW,2013-05-26 10:21:00,
2013-05-26 06:26:00,40.9,38.0,29.78,NW,309,4.4,7.6,89,0.00,,,0.04,WUHU216HW,2013-05-26 10:26:00,
2013-05-26 06:31:00,40.9,38.0,29.78,NW,315,3.4,7.6,89,0.00,,,0.04,WUHU216HW,2013-05-26 10:31:00,
2013-05-26 06:36:00,41.0,38.1,29.77,NE,45,5.8,5.8,89,0.00,,,0.04,WUHU216HW,2013-05-26 10:36:00,
2013-05-26 06:41:00,41.0,38.1,29.78,WNW,293,5.4,5.8,89,0.00,,,0.04,WUHU216HW,2013-05-26 10:41:00,
2013-05-26 06:46:00,41.2,38.2,29.78,NW,306,4.6,6.3,89,0.00,,,0.04,WUHU216HW,2013-05-26 10:46:00,
2013-05-26 06:51:00,41.4,38.4,29.78,NNW,338,3.8,6.3,89,0.00,,,0.04,WUHU216HW,2013-05-26 10:51:00,
2013-05-26 06:56:00,41.4,38.4,29.78,NNW,340,3.4,6.9,89,0.00,,,0.04,WUHU216HW,2013-05-26 10:56:00,
2013-05-26 07:01:00,41.6,38.6,29.79,West,270,5.7,8.3,89,0.00,,,0.04,WUHU216HW,2013-05-26 11:01:00,
2013-05-26 07:06:00,41.8,38.8,29.79,NW,315,3.1,8.3,89,0.00,,,0.04,WUHU216HW,2013-05-26 11:06:00,
2013-05-26 07:11:00,41.9,38.9,29.79,NNE,23,4.7,7.6,89,0.00,,,0.04,WUHU216HW,2013-05-26 11:11:00,
2013-05-26 07:16:00,42.1,39.1,29.79,WNW,290,6.3,7.6,89,0.00,,,0.04,WUHU216HW,2013-05-26 11:16:00,
2013-05-26 07:21:00,42.1,38.9,29.79,NW,312,4.7,6.9,88,0.00,,,0.04,WUHU216HW,2013-05-26 11:21:00,
2013-05-26 07:26:00,42.1,38.9,29.80,NW,322,5.4,7.2,88,0.00,,,0.04,WUHU216HW,2013-05-26 11:26:00,
2013-05-26 07:31:00,42.3,39.1,29.80,NNW,338,4.5,7.2,88,0.00,,,0.04,WUHU216HW,2013-05-26 11:31:00,
2013-05-26 07:36:00,42.3,39.1,29.81,WSW,248,2.9,4.5,88,0.00,,,0.04,WUHU216HW,2013-05-26 11:36:00,
2013-05-26 07:41:00,42.5,39.3,29.81,WNW,293,4.0,4.0,88,0.00,,,0.04,WUHU216HW,2013-05-26 11:41:00,
2013-05-26 07:46:00,42.5,39.3,29.81,North,351,3.3,5.8,88,0.00,,,0.04,WUHU216HW,2013-05-26 11:46:00,
2013-05-26 07:51:00,42.5,39.3,29.81,NW,315,4.7,5.8,88,0.00,,,0.04,WUHU216HW,2013-05-26 11:51:00,
2013-05-26 07:56:00,42.7,39.5,29.81,West,263,1.9,4.7,88,0.00,,,0.04,WUHU216HW,2013-05-26 11:56:00,
2013-05-26 08:01:00,42.7,39.5,29.81,NW,315,4.0,4.0,88,0.00,,,0.04,WUHU216HW,2013-05-26 12:01:00,
2013-05-26 08:06:00,42.7,39.5,29.81,NW,315,4.0,5.6,88,0.00,,,0.04,WUHU216HW,2013-05-26 12:06:00,
2013-05-26 08:11:00,42.8,39.6,29.82,WNW,287,2.8,5.6,88,0.00,,,0.04,WUHU216HW,2013-05-26 12:11:00,
2013-05-26 08:16:00,42.8,39.6,29.82,WSW,248,1.8,3.4,88,0.00,,,0.04,WUHU216HW,2013-05-26 12:16:00,
2013-05-26 08:21:00,42.8,39.6,29.82,WNW,295,4.4,7.6,88,0.00,,,0.04,WUHU216HW,2013-05-26 12:21:00,
2013-05-26 08:26:00,42.8,39.6,29.82,NW,322,3.5,7.6,88,0.00,,,0.04,WUHU216HW,2013-05-26 12:26:00,
2013-05-26 08:31:00,43.0,39.8,29.82,WSW,254,1.3,4.5,88,0.00,,,0.04,WUHU216HW,2013-05-26 12:31:00,
2013-05-26 08:36:00,43.2,40.0,29.83,WSW,255,2.6,3.6,88,0.00,,,0.04,WUHU216HW,2013-05-26 12:36:00,
2013-05-26 08:41:00,43.2,40.0,29.83,WNW,293,4.5,4.5,88,0.00,,,0.04,WUHU216HW,2013-05-26 12:41:00,
2013-05-26 08:46:00,43.6,40.3,29.83,WNW,286,3.1,7.2,88,0.00,,,0.04,WUHU216HW,2013-05-26 12:46:00,
2013-05-26 08:50:00,43.9,40.6,29.83,WNW,293,5.4,7.2,88,0.00,,,0.04,WUHU216HW,2013-05-26 12:50:00,
2013-05-26 08:55:00,44.3,41.0,29.83,West,280,5.6,6.9,88,0.00,,,0.04,WUHU216HW,2013-05-26 12:55:00,
2013-05-26 09:00:00,44.6,41.1,29.83,West,270,4.9,6.9,87,0.00,,,0.04,WUHU216HW,2013-05-26 13:00:00,
2013-05-26 09:05:00,45.0,41.5,29.83,West,270,4.0,6.9,87,0.00,,,0.04,WUHU216HW,2013-05-26 13:05:00,
2013-05-26 09:10:00,45.4,41.6,29.83,NW,318,3.9,7.6,86,0.00,,,0.04,WUHU216HW,2013-05-26 13:10:00,
2013-05-26 09:15:00,45.7,41.9,29.83,North,0,6.3,7.6,86,0.00,,,0.04,WUHU216HW,2013-05-26 13:15:00,
2013-05-26 09:20:00,45.9,42.1,29.83,NNW,338,6.3,9.4,86,0.00,,,0.04,WUHU216HW,2013-05-26 13:20:00,
2013-05-26 09:25:00,46.1,41.4,29.83,NNW,347,7.5,9.4,84,0.00,,,0.04,WUHU216HW,2013-05-26 13:25:00,
2013-05-26 09:30:00,46.4,41.7,29.83,West,273,6.7,12.8,84,0.01,,,0.05,WUHU216HW,2013-05-26 13:30:00,
2013-05-26 09:35:00,46.6,41.9,29.83,NW,322,5.8,12.8,84,0.01,,,0.05,WUHU216HW,2013-05-26 13:35:00,
2013-05-26 09:40:00,46.8,41.5,29.83,West,270,6.3,7.6,82,0.01,,,0.05,WUHU216HW,2013-05-26 13:40:00,
2013-05-26 09:45:00,47.2,41.9,29.84,NNW,328,4.6,9.8,82,0.01,,,0.05,WUHU216HW,2013-05-26 13:45:00,
2013-05-26 09:50:00,47.3,41.1,29.84,NW,310,9.0,15.2,79,0.01,,,0.05,WUHU216HW,2013-05-26 13:50:00,
2013-05-26 09:55:00,47.5,41.0,29.84,WNW,293,9.6,15.2,78,0.01,,,0.05,WUHU216HW,2013-05-26 13:55:00,
2013-05-26 10:00:00,47.7,41.5,29.84,West,270,6.6,9.8,79,0.01,,,0.05,WUHU216HW,2013-05-26 14:00:00,
2013-05-26 10:05:00,47.9,41.1,29.84,WNW,295,10.8,15.9,77,0.01,,,0.05,WUHU216HW,2013-05-26 14:05:00,
2013-05-26 10:10:00,48.1,41.6,29.84,NW,315,6.0,15.9,78,0.01,,,0.05,WUHU216HW,2013-05-26 14:10:00,
2013-05-26 10:15:00,48.2,42.0,29.84,WSW,248,5.4,8.3,79,0.01,,,0.05,WUHU216HW,2013-05-26 14:15:00,
2013-05-26 10:20:00,48.4,42.2,29.85,NW,322,6.3,8.5,79,0.01,,,0.05,WUHU216HW,2013-05-26 14:20:00,
2013-05-26 10:25:00,48.6,42.4,29.85,West,279,5.5,8.5,79,0.01,,,0.05,WUHU216HW,2013-05-26 14:25:00,
2013-05-26 10:30:00,48.6,42.1,29.85,WNW,293,7.6,9.8,78,0.00,,,0.05,WUHU216HW,2013-05-26 14:30:00,
2013-05-26 10:35:00,48.8,42.3,29.85,WSW,248,5.4,9.8,78,0.00,,,0.05,WUHU216HW,2013-05-26 14:35:00,
2013-05-26 10:40:00,49.0,42.5,29.85,WNW,293,10.3,10.3,78,0.00,,,0.05,WUHU216HW,2013-05-26 14:40:00,
2013-05-26 10:45:00,49.1,42.2,29.86,North,349,6.9,10.3,77,0.00,,,0.05,WUHU216HW,2013-05-26 14:45:00,
2013-05-26 10:50:00,49.3,42.1,29.86,WNW,283,4.7,9.8,76,0.00,,,0.05,WUHU216HW,2013-05-26 14:50:00,
2013-05-26 10:55:00,49.3,41.8,29.86,WNW,293,7.1,9.8,75,0.00,,,0.05,WUHU216HW,2013-05-26 14:55:00,
2013-05-26 11:00:00,49.7,41.9,29.85,WNW,293,11.2,11.2,74,0.00,,,0.05,WUHU216HW,2013-05-26 15:00:00,
2013-05-26 11:05:00,50.0,41.8,29.86,WNW,295,13.6,14.8,73,0.00,,,0.05,WUHU216HW,2013-05-26 15:05:00,
2013-05-26 11:10:00,50.2,41.7,29.86,West,268,6.7,14.8,72,0.00,,,0.05,WUHU216HW,2013-05-26 15:10:00,
2013-05-26 11:15:00,50.6,42.7,29.86,WNW,289,7.9,8.9,74,0.00,,,0.05,WUHU216HW,2013-05-26 15:15:00,
2013-05-26 11:20:00,50.8,42.9,29.86,NNW,329,5.1,8.9,74,0.00,,,0.05,WUHU216HW,2013-05-26 15:20:00,
2013-05-26 11:25:00,51.1,43.2,29.86,WNW,293,10.1,10.1,74,0.00,,,0.05,WUHU216HW,2013-05-26 15:25:00,
2013-05-26 11:30:00,51.5,42.9,29.86,NE,45,6.9,10.1,72,0.00,,,0.05,WUHU216HW,2013-05-26 15:30:00,
2013-05-26 11:35:00,51.8,43.6,29.86,NW,315,6.9,11.2,73,0.00,,,0.05,WUHU216HW,2013-05-26 15:35:00,
2013-05-26 11:40:00,51.8,42.9,29.86,West,260,3.9,11.2,71,0.00,,,0.05,WUHU216HW,2013-05-26 15:40:00,
2013-05-26 11:45:00,52.0,43.1,29.86,NW,315,8.9,8.9,71,0.00,,,0.05,WUHU216HW,2013-05-26 15:45:00,
2013-05-26 11:50:00,52.0,43.1,29.87,WNW,293,8.3,8.9,71,0.00,,,0.05,WUHU216HW,2013-05-26 15:50:00,
2013-05-26 11:55:00,52.0,43.1,29.87,WNW,303,5.6,8.3,71,0.00,,,0.05,WUHU216HW,2013-05-26 15:55:00,
2013-05-26 12:00:00,52.0,42.4,29.87,West,270,11.0,11.0,69,0.00,,,0.05,WUHU216HW,2013-05-26 16:00:00,
2013-05-26 12:05:00,52.2,42.9,29.87,West,276,3.0,11.0,70,0.00,,,0.05,WUHU216HW,2013-05-26 16:05:00,
2013-05-26 12:10:00,52.2,43.3,29.87,WSW,248,3.8,7.6,71,0.00,,,0.05,WUHU216HW,2013-05-26 16:10:00,
2013-05-26 12:15:00,52.2,43.6,29.87,WNW,293,4.3,6.9,72,0.00,,,0.05,WUHU216HW,2013-05-26 16:15:00,
2013-05-26 12:20:00,52.6,43.3,29.87,North,0,7.4,9.2,70,0.00,,,0.05,WUHU216HW,2013-05-26 16:20:00,
2013-05-26 12:25:00,52.6,43.3,29.88,WNW,293,4.0,9.2,70,0.00,,,0.05,WUHU216HW,2013-05-26 16:25:00,
2013-05-26 12:30:00,52.6,43.7,29.88,NW,315,6.3,8.3,71,0.00,,,0.05,WUHU216HW,2013-05-26 16:30:00,
2013-05-26 12:35:00,52.6,43.7,29.88,SW,225,4.0,7.6,71,0.00,,,0.05,WUHU216HW,2013-05-26 16:35:00,
2013-05-26 12:40:00,52.6,43.3,29.88,NW,304,3.9,9.2,70,0.00,,,0.05,WUHU216HW,2013-05-26 16:40:00,
2013-05-26 12:45:00,52.6,43.3,29.88,SW,225,4.0,9.2,70,0.00,,,0.05,WUHU216HW,2013-05-26 16:45:00,
2013-05-26 12:50:00,52.6,43.3,29.88,SSW,203,4.0,8.9,70,0.00,,,0.05,WUHU216HW,2013-05-26 16:50:00,
2013-05-26 12:55:00,52.7,43.1,29.88,NW,315,8.5,9.6,69,0.00,,,0.05,WUHU216HW,2013-05-26 16:55:00,
2013-05-26 13:00:00,52.9,43.6,29.88,NW,315,8.1,9.6,70,0.00,,,0.05,WUHU216HW,2013-05-26 17:00:00,
2013-05-26 13:05:00,52.9,43.6,29.89,WNW,294,5.7,8.1,70,0.00,,,0.05,WUHU216HW,2013-05-26 17:05:00,
2013-05-26 13:10:00,52.9,43.3,29.89,West,270,7.2,7.2,69,0.00,,,0.05,WUHU216HW,2013-05-26 17:10:00,
2013-05-26 13:15:00,52.7,43.1,29.89,North,0,4.3,7.2,69,0.00,,,0.05,WUHU216HW,2013-05-26 17:15:00,
2013-05-26 13:20:00,52.9,42.9,29.89,West,268,8.8,11.0,68,0.00,,,0.05,WUHU216HW,2013-05-26 17:20:00,
2013-05-26 13:25:00,52.7,42.3,29.89,WNW,293,8.9,11.0,67,0.00,,,0.05,WUHU216HW,2013-05-26 17:25:00,
2013-05-26 13:30:00,52.7,42.7,29.90,WNW,290,3.4,9.2,68,0.00,,,0.05,WUHU216HW,2013-05-26 17:30:00,
2013-05-26 13:35:00,52.7,42.7,29.90,SW,218,5.0,12.8,68,0.00,,,0.05,WUHU216HW,2013-05-26 17:35:00,
2013-05-26 13:40:00,52.9,42.9,29.90,NW,315,4.0,12.8,68,0.00,,,0.05,WUHU216HW,2013-05-26 17:40:00,
2013-05-26 13:45:00,52.9,43.3,29.90,NW,311,3.0,7.2,69,0.00,,,0.05,WUHU216HW,2013-05-26 17:45:00,
2013-05-26 13:50:00,53.3,43.6,29.90,NW,324,5.7,6.9,69,0.00,,,0.05,WUHU216HW,2013-05-26 17:50:00,
2013-05-26 13:55:00,53.8,43.4,29.90,NW,315,7.4,11.4,67,0.00,,,0.05,WUHU216HW,2013-05-26 17:55:00,
2013-05-26 14:00:00,54.4,44.0,29.90,West,268,5.3,11.4,67,0.00,,,0.05,WUHU216HW,2013-05-26 18:00:00,
2013-05-26 14:05:00,54.7,44.6,29.90,NW,315,5.4,10.5,68,0.00,,,0.05,WUHU216HW,2013-05-26 18:05:00,
2013-05-26 14:10:00,54.9,43.3,29.91,NW,306,7.3,8.7,65,0.00,,,0.05,WUHU216HW,2013-05-26 18:10:00,
2013-05-26 14:15:00,55.1,42.7,29.91,WNW,293,7.4,12.8,63,0.00,,,0.05,WUHU216HW,2013-05-26 18:15:00,
2013-05-26 14:20:00,55.3,43.7,29.91,WNW,293,13.4,13.4,65,0.00,,,0.05,WUHU216HW,2013-05-26 18:20:00,
2013-05-26 14:25:00,55.4,43.4,29.91,NW,311,5.7,13.4,64,0.00,,,0.05,WUHU216HW,2013-05-26 18:25:00,
2013-05-26 14:30:00,56.0,44.0,29.91,NNE,23,4.1,11.4,64,0.00,,,0.05,WUHU216HW,2013-05-26 18:30:00,
2013-05-26 14:35:00,56.2,44.2,29.91,SW,225,6.7,10.1,64,0.00,,,0.05,WUHU216HW,2013-05-26 18:35:00,
2013-05-26 14:40:00,56.3,44.3,29.91,SW,225,7.6,8.5,64,0.00,,,0.05,WUHU216HW,2013-05-26 18:40:00,
2013-05-26 14:45:00,56.0,43.2,29.91,WNW,293,11.6,11.6,62,0.00,,,0.05,WUHU216HW,2013-05-26 18:45:00,
2013-05-26 14:50:00,55.6,42.4,29.92,West,278,6.4,11.6,61,0.00,,,0.05,WUHU216HW,2013-05-26 18:50:00,
2013-05-26 14:55:00,55.4,42.2,29.92,WNW,293,3.6,13.2,61,0.00,,,0.05,WUHU216HW,2013-05-26 18:55:00,
2013-05-26 15:00:00,55.3,42.1,29.92,WNW,284,7.9,13.2,61,0.00,,,0.05,WUHU216HW,2013-05-26 19:00:00,
2013-05-26 15:05:00,55.1,42.3,29.93,NW,321,5.4,12.3,62,0.00,,,0.05,WUHU216HW,2013-05-26 19:05:00,
2013-05-26 15:10:00,55.3,43.3,29.92,North,0,7.6,8.5,64,0.00,,,0.05,WUHU216HW,2013-05-26 19:10:00,
2013-05-26 15:15:00,55.6,43.6,29.93,NNW,338,14.5,14.5,64,0.00,,,0.05,WUHU216HW,2013-05-26 19:15:00,
2013-05-26 15:20:00,55.8,43.4,29.93,NW,309,5.4,14.5,63,0.00,,,0.05,WUHU216HW,2013-05-26 19:20:00,
2013-05-26 15:25:00,55.8,43.0,29.93,West,277,7.2,10.3,62,0.00,,,0.05,WUHU216HW,2013-05-26 19:25:00,
2013-05-26 15:30:00,55.6,42.8,29.93,NW,315,11.2,11.2,62,0.00,,,0.05,WUHU216HW,2013-05-26 19:30:00,
2013-05-26 15:35:00,55.4,42.2,29.93,NW,315,6.2,11.2,61,0.00,,,0.05,WUHU216HW,2013-05-26 19:35:00,
2013-05-26 15:40:00,55.4,42.2,29.94,North,0,11.0,11.0,61,0.00,,,0.05,WUHU216HW,2013-05-26 19:40:00,
2013-05-26 15:45:00,55.3,42.1,29.94,North,0,10.3,11.0,61,0.00,,,0.05,WUHU216HW,2013-05-26 19:45:00,
2013-05-26 15:50:00,55.1,41.9,29.94,WNW,302,10.1,11.9,61,0.00,,,0.05,WUHU216HW,2013-05-26 19:50:00,
2013-05-26 15:55:00,55.4,42.2,29.94,NE,38,3.1,11.9,61,0.00,,,0.05,WUHU216HW,2013-05-26 19:55:00,
2013-05-26 16:00:00,55.8,42.6,29.94,NNW,331,6.1,9.2,61,0.00,,,0.05,WUHU216HW,2013-05-26 20:00:00,
2013-05-26 16:05:00,56.3,42.2,29.94,WNW,293,6.9,9.2,59,0.00,,,0.05,WUHU216HW,2013-05-26 20:05:00,
2013-05-26 16:10:00,56.2,42.5,29.94,NNE,23,8.5,8.5,60,0.00,,,0.05,WUHU216HW,2013-05-26 20:10:00,
2013-05-26 16:15:00,56.0,42.4,29.94,North,2,4.9,10.5,60,0.00,,,0.05,WUHU216HW,2013-05-26 20:15:00,
2013-05-26 16:20:00,55.8,42.6,29.94,WNW,297,4.5,10.5,61,0.00,,,0.05,WUHU216HW,2013-05-26 20:20:00,
2013-05-26 16:25:00,55.8,41.7,29.95,North,2,8.1,8.9,59,0.00,,,0.05,WUHU216HW,2013-05-26 20:25:00,
2013-05-26 16:30:00,55.8,42.2,29.95,West,270,8.7,8.9,60,0.00,,,0.05,WUHU216HW,2013-05-26 20:30:00,
2013-05-26 16:35:00,56.0,42.8,29.95,WNW,293,4.5,8.7,61,0.00,,,0.05,WUHU216HW,2013-05-26 20:35:00,
2013-05-26 16:40:00,55.8,42.2,29.95,NW,322,5.2,10.1,60,0.00,,,0.05,WUHU216HW,2013-05-26 20:40:00,
2013-05-26 16:45:00,55.6,41.1,29.96,SW,235,10.1,13.0,58,0.00,,,0.05,WUHU216HW,2013-05-26 20:45:00,
2013-05-26 16:50:00,55.4,40.9,29.96,NW,315,9.4,13.0,58,0.00,,,0.05,WUHU216HW,2013-05-26 20:50:00,
2013-05-26 16:55:00,55.4,40.5,29.96,NW,305,3.6,11.9,57,0.00,,,0.05,WUHU216HW,2013-05-26 20:55:00,
2013-05-26 17:00:00,55.4,41.4,29.96,North,359,4.9,9.4,59,0.00,,,0.05,WUHU216HW,2013-05-26 21:00:00,
2013-05-26 17:05:00,55.3,40.8,29.96,NNW,338,3.9,18.1,58,0.00,,,0.05,WUHU216HW,2013-05-26 21:05:00,
2013-05-26 17:10:00,55.3,40.4,29.97,West,270,8.1,18.1,57,0.00,,,0.05,WUHU216HW,2013-05-26 21:10:00,
2013-05-26 17:15:00,55.1,40.7,29.97,NNW,338,7.6,8.3,58,0.00,,,0.05,WUHU216HW,2013-05-26 21:15:00,
2013-05-26 17:20:00,55.1,41.5,29.97,NW,315,3.4,7.6,60,0.00,,,0.05,WUHU216HW,2013-05-26 21:20:00,
2013-05-26 17:25:00,54.9,40.9,29.98,WNW,293,7.2,7.2,59,0.00,,,0.05,WUHU216HW,2013-05-26 21:25:00,
2013-05-26 17:30:00,54.9,41.3,29.98,NW,306,4.7,7.6,60,0.00,,,0.05,WUHU216HW,2013-05-26 21:30:00,
2013-05-26 17:35:00,54.7,41.9,29.98,NW,315,4.7,7.6,62,0.00,,,0.05,WUHU216HW,2013-05-26 21:35:00,
2013-05-26 17:40:00,54.5,41.8,29.98,NNW,338,4.9,5.8,62,0.00,,,0.05,WUHU216HW,2013-05-26 21:40:00,
2013-05-26 17:45:00,54.5,42.5,29.98,West,281,2.1,5.8,64,0.00,,,0.05,WUHU216HW,2013-05-26 21:45:00,
2013-05-26 17:50:00,54.2,43.4,29.99,NNW,339,6.8,8.5,67,0.00,,,0.05,WUHU216HW,2013-05-26 21:50:00,
2013-05-26 17:55:00,53.3,42.5,29.99,WNW,297,3.6,9.6,67,0.00,,,0.05,WUHU216HW,2013-05-26 21:55:00,
2013-05-26 18:00:00,52.6,42.6,29.99,NW,315,6.3,9.6,68,0.00,,,0.05,WUHU216HW,2013-05-26 22:00:00,
2013-05-26 18:05:00,52.2,42.2,29.99,West,265,5.5,9.2,68,0.00,,,0.05,WUHU216HW,2013-05-26 22:05:00,
2013-05-26 18:10:00,52.0,42.4,29.99,WSW,248,10.5,11.6,69,0.00,,,0.05,WUHU216HW,2013-05-26 22:10:00,
2013-05-26 18:15:00,51.7,42.4,29.99,NW,315,10.3,11.6,70,0.00,,,0.05,WUHU216HW,2013-05-26 22:15:00,
2013-05-26 18:20:00,51.7,42.4,30.00,North,0,6.9,10.3,70,0.00,,,0.05,WUHU216HW,2013-05-26 22:20:00,
2013-05-26 18:25:00,51.5,42.3,30.00,North,0,5.1,7.8,70,0.00,,,0.05,WUHU216HW,2013-05-26 22:25:00,
2013-05-26 18:30:00,51.5,42.3,30.00,WSW,248,7.6,8.7,70,0.00,,,0.05,WUHU216HW,2013-05-26 22:30:00,
2013-05-26 18:35:00,51.5,41.9,30.00,NW,315,8.1,12.8,69,0.00,,,0.05,WUHU216HW,2013-05-26 22:35:00,
2013-05-26 18:40:00,51.7,42.1,30.01,NNW,338,7.2,12.8,69,0.00,,,0.05,WUHU216HW,2013-05-26 22:40:00,
2013-05-26 18:45:00,51.7,41.7,30.01,SSW,203,9.8,11.2,68,0.00,,,0.05,WUHU216HW,2013-05-26 22:45:00,
2013-05-26 18:50:00,51.8,41.8,30.01,NW,315,6.8,9.8,68,0.00,,,0.05,WUHU216HW,2013-05-26 22:50:00,
2013-05-26 18:55:00,51.8,41.8,30.01,West,270,9.2,9.4,68,0.00,,,0.05,WUHU216HW,2013-05-26 22:55:00,
2013-05-26 19:00:00,51.8,41.8,30.01,NW,313,7.2,9.6,68,0.00,,,0.05,WUHU216HW,2013-05-26 23:00:00,
2013-05-26 19:05:00,51.8,41.8,30.02,NNW,338,4.3,9.6,68,0.00,,,0.05,WUHU216HW,2013-05-26 23:05:00,
2013-05-26 19:10:00,51.8,41.8,30.02,North,0,6.5,11.0,68,0.00,,,0.05,WUHU216HW,2013-05-26 23:10:00,
2013-05-26 19:15:00,51.8,41.8,30.02,NW,306,3.3,11.0,68,0.00,,,0.05,WUHU216HW,2013-05-26 23:15:00,
2013-05-26 19:20:00,51.7,41.4,30.02,NW,322,5.2,6.9,67,0.00,,,0.05,WUHU216HW,2013-05-26 23:20:00,
2013-05-26 19:25:00,51.8,41.5,30.03,West,270,5.1,11.4,67,0.00,,,0.05,WUHU216HW,2013-05-26 23:25:00,
2013-05-26 19:30:00,51.8,41.5,30.03,NW,315,8.9,11.4,67,0.00,,,0.05,WUHU216HW,2013-05-26 23:30:00,
2013-05-26 19:35:00,52.0,41.7,30.03,SW,225,5.6,9.2,67,0.00,,,0.05,WUHU216HW,2013-05-26 23:35:00,
2013-05-26 19:40:00,51.8,41.1,30.03,North,0,7.6,7.6,67,0.00,,,0.05,WUHU216HW,2013-05-26 23:40:00,
2013-05-26 19:45:00,51.7,41.4,30.04,WNW,293,12.3,12.3,67,0.00,,,0.05,WUHU216HW,2013-05-26 23:45:00,
2013-05-26 19:50:00,51.7,41.4,30.04,North,0,4.9,12.3,67,0.00,,,0.05,WUHU216HW,2013-05-26 23:50:00,
2013-05-26 19:55:00,51.5,40.8,30.05,NW,318,7.1,8.5,67,0.00,,,0.05,WUHU216HW,2013-05-26 23:55:00,
2013-05-26 20:00:00,51.5,41.2,30.05,West,261,2.6,8.5,67,0.00,,,0.05,WUHU216HW,2013-05-27 00:00:00,
2013-05-26 20:05:00,51.5,41.2,30.05,West,270,5.8,7.2,67,0.00,,,0.05,WUHU216HW,2013-05-27 00:05:00,
2013-05-26 20:10:00,51.3,41.4,30.05,West,270,2.5,7.2,68,0.00,,,0.05,WUHU216HW,2013-05-27 00:10:00,
2013-05-26 20:15:00,51.1,41.2,30.05,West,259,2.4,5.4,68,0.00,,,0.05,WUHU216HW,2013-05-27 00:15:00,
2013-05-26 20:20:00,50.9,41.0,30.06,WSW,255,2.9,5.1,68,0.00,,,0.05,WUHU216HW,2013-05-27 00:20:00,
2013-05-26 20:25:00,50.8,41.2,30.06,West,270,4.0,5.6,69,0.00,,,0.05,WUHU216HW,2013-05-27 00:25:00,
2013-05-26 20:30:00,50.8,41.2,30.06,WNW,293,5.4,5.6,69,0.00,,,0.05,WUHU216HW,2013-05-27 00:30:00,
2013-05-26 20:35:00,50.6,41.4,30.06,NW,315,3.4,5.4,70,0.00,,,0.05,WUHU216HW,2013-05-27 00:35:00,
2013-05-26 20:40:00,50.4,40.8,30.06,West,281,9.8,15.9,69,0.00,,,0.05,WUHU216HW,2013-05-27 00:40:00,
2013-05-26 20:45:00,50.4,40.8,30.06,WSW,248,4.7,15.9,69,0.00,,,0.05,WUHU216HW,2013-05-27 00:45:00,
2013-05-26 20:50:00,50.4,41.2,30.06,WNW,293,5.4,7.4,70,0.00,,,0.05,WUHU216HW,2013-05-27 00:50:00,
2013-05-26 20:55:00,50.2,41.0,30.07,West,269,4.6,5.4,70,0.00,,,0.05,WUHU216HW,2013-05-27 00:55:00,
2013-05-26 21:00:00,50.0,41.2,30.07,SW,225,5.1,5.6,71,0.00,,,0.05,WUHU216HW,2013-05-27 01:00:00,
2013-05-26 21:05:00,50.0,41.2,30.07,WNW,285,2.7,5.6,71,0.00,,,0.05,WUHU216HW,2013-05-27 01:05:00,
2013-05-26 21:10:00,49.9,41.1,30.08,WNW,293,2.0,4.3,71,0.00,,,0.05,WUHU216HW,2013-05-27 01:10:00,
2013-05-26 21:15:00,49.7,40.9,30.08,NW,323,3.7,4.9,71,0.00,,,0.05,WUHU216HW,2013-05-27 01:15:00,
2013-05-26 21:20:00,49.5,40.7,30.08,West,270,2.5,4.9,71,0.00,,,0.05,WUHU216HW,2013-05-27 01:20:00,
2013-05-26 21:25:00,49.3,40.8,30.08,NW,315,2.5,4.3,72,0.00,,,0.05,WUHU216HW,2013-05-27 01:25:00,
2013-05-26 21:30:00,49.3,40.8,30.08,WNW,293,3.1,3.4,72,0.00,,,0.05,WUHU216HW,2013-05-27 01:30:00,
2013-05-26 21:35:00,49.1,40.6,30.09,WNW,284,2.0,3.4,72,0.00,,,0.05,WUHU216HW,2013-05-27 01:35:00,
2013-05-26 21:40:00,49.0,40.5,30.09,West,275,2.5,3.8,72,0.00,,,0.05,WUHU216HW,2013-05-27 01:40:00,
2013-05-26 21:45:00,49.0,40.5,30.09,WNW,293,3.9,5.8,72,0.00,,,0.05,WUHU216HW,2013-05-27 01:45:00,
2013-05-26 21:50:00,48.8,40.3,30.10,WNW,293,2.3,5.8,72,0.00,,,0.05,WUHU216HW,2013-05-27 01:50:00,
2013-05-26 21:55:00,48.8,40.7,30.10,West,270,5.4,5.4,73,0.00,,,0.05,WUHU216HW,2013-05-27 01:55:00,
2013-05-26 22:00:00,48.6,40.5,30.10,West,270,3.4,5.4,73,0.00,,,0.05,WUHU216HW,2013-05-27 02:00:00,
2013-05-26 22:05:00,48.6,40.5,30.10,West,270,1.3,4.3,73,0.00,,,0.05,WUHU216HW,2013-05-27 02:05:00,
2013-05-26 22:10:00,48.6,40.5,30.10,WSW,248,0.2,2.5,73,0.00,,,0.05,WUHU216HW,2013-05-27 02:10:00,
2013-05-26 22:15:00,48.4,40.6,30.10,South,180,0.2,1.3,74,0.00,,,0.05,WUHU216HW,2013-05-27 02:15:00,
2013-05-26 22:20:00,48.2,40.4,30.10,West,270,0.7,1.3,74,0.00,,,0.05,WUHU216HW,2013-05-27 02:20:00,
2013-05-26 22:25:00,48.1,40.3,30.10,NW,315,2.5,2.5,74,0.00,,,0.05,WUHU216HW,2013-05-27 02:25:00,
2013-05-26 22:30:00,47.9,40.4,30.10,WSW,248,1.8,2.5,75,0.00,,,0.05,WUHU216HW,2013-05-27 02:30:00,
2013-05-26 22:35:00,47.7,40.2,30.10,WNW,293,1.8,1.8,75,0.00,,,0.05,WUHU216HW,2013-05-27 02:35:00,
2013-05-26 22:40:00,47.5,40.1,30.11,West,267,0.7,2.2,75,0.00,,,0.05,WUHU216HW,2013-05-27 02:40:00,
2013-05-26 22:45:00,47.3,40.2,30.10,West,279,1.6,2.2,76,0.00,,,0.05,WUHU216HW,2013-05-27 02:45:00,
2013-05-26 22:50:00,47.3,40.2,30.10,West,270,1.8,2.0,76,0.00,,,0.05,WUHU216HW,2013-05-27 02:50:00,
2013-05-26 22:55:00,47.2,40.1,30.11,WSW,248,2.7,2.7,76,0.00,,,0.05,WUHU216HW,2013-05-27 02:55:00,
2013-05-26 23:00:00,47.2,40.1,30.12,NNW,338,0.2,2.7,76,0.00,,,0.05,WUHU216HW,2013-05-27 03:00:00,
2013-05-26 23:06:00,47.0,39.9,30.12,SE,135,0.6,0.9,76,0.00,,,0.05,WUHU216HW,2013-05-27 03:06:00,
2013-05-26 23:10:00,46.8,39.7,30.12,West,270,1.6,1.6,76,0.00,,,0.05,WUHU216HW,2013-05-27 03:10:00,
2013-05-26 23:16:00,46.6,39.8,30.12,SW,225,1.1,2.2,77,0.00,,,0.05,WUHU216HW,2013-05-27 03:16:00,
2013-05-26 23:21:00,46.6,39.8,30.12,SSE,158,0.0,2.2,77,0.00,,,0.05,WUHU216HW,2013-05-27 03:21:00,
2013-05-26 23:26:00,46.4,39.6,30.12,SSE,158,0.0,0.9,77,0.00,,,0.05,WUHU216HW,2013-05-27 03:26:00,
2013-05-26 23:31:00,46.4,39.6,30.12,WSW,248,0.0,1.6,77,0.00,,,0.05,WUHU216HW,2013-05-27 03:31:00,
2013-05-26 23:35:00,46.3,39.5,30.12,South,180,0.4,1.6,77,0.00,,,0.05,WUHU216HW,2013-05-27 03:35:00,
2013-05-26 23:40:00,46.3,39.5,30.12,SE,135,0.4,1.1,77,0.00,,,0.05,WUHU216HW,2013-05-27 03:40:00,
2013-05-26 23:45:00,46.1,39.6,30.13,SE,135,0.9,1.1,78,0.00,,,0.05,WUHU216HW,2013-05-27 03:45:00,
2013-05-26 23:51:00,46.1,39.6,30.13,SE,135,0.7,0.9,78,0.00,,,0.05,WUHU216HW,2013-05-27 03:51:00,
2013-05-26 23:55:00,45.9,39.4,30.13,West,261,1.0,1.6,78,0.00,,,0.05,WUHU216HW,2013-05-27 03:55:00,